Weather History for KPRC - July, 2013

Change the Weather History Date:

Monday, July 15, 2013

  Actual Average Record
Temperature  
Mean Temperature 77 °F 76 °F  
Max Temperature 91 °F 90 °F 101 °F (1948)
Min Temperature 62 °F 62 °F 52 °F (2011)
Degree Days  
Heating Degree Days 0    
Month to date heating degree days 0  
Since 1 July heating degree days 0  
Cooling Degree Days 12    
Month to date cooling degree days 214  
Year to date cooling degree days 573  
Growing Degree Days 27 (Base 50)    
Moisture  
Dew Point 55 °F    
Average Humidity 59    
Maximum Humidity 87    
Minimum Humidity 26    
Precipitation  
Precipitation 0.08 in 0.07 in 1.41 in (1990)
Month to date precipitation 0.23 0.77  
Year to date precipitation 2.75 5.70  
Sea Level Pressure  
Sea Level Pressure 29.85 in    
Wind  
Wind Speed 6 mph (SW)    
Max Wind Speed 28 mph    
Max Gust Speed 37 mph    
Visibility 10 miles    
Events Rain , Thunderstorm    
T = Trace of Precipitation, MM = Missing Value Source: NWS Daily Summary

Daily Weather History Graph

Daily Weather History Graph

Search for Another Location

Airport or City:

Trip Planner

Search our weather history database for the weather conditions in past years. The results will help you decide how hot, cold, wet, or windy it might be!

Date:

Astronomy

Jul. 15, 2013 Rise Set
Actual Time 5:28 AM MST 7:42 PM MST
Civil Twilight 4:59 AM MST 8:11 PM MST
Nautical Twilight 4:24 AM MST 8:46 PM MST
Astronomical Twilight 3:45 AM MST 9:25 PM MST
Moon 12:31 PM MST (7/15) 11:53 PM MST (7/15)
Length of Visible Light 15h 12m
Length of Day
14h 14m
Waxing Crescent, 46% of the Moon is Illuminated
Jul 15
Waxing Crescent
Jul 15
First Quarter
Jul 22
Full
Jul 29
Last Quarter
Aug 6
New

Hourly Weather History & Observations

Time (MST) Temp. Heat Index Dew Point Humidity Pressure Visibility Wind Dir Wind Speed Gust Speed Precip Events Conditions
12:53 AM 69.1 °F - 51.1 °F 53% 29.86 in 10.0 mi SW 4.6 mph - N/A   Clear
1:53 AM 68.0 °F - 52.0 °F 56% 29.84 in 10.0 mi South 5.8 mph - N/A   Clear
2:53 AM 66.0 °F - 52.0 °F 60% 29.83 in 10.0 mi Calm Calm - N/A   Clear
3:53 AM 66.0 °F - 52.0 °F 60% 29.83 in 10.0 mi South 8.1 mph - N/A   Clear
4:53 AM 64.0 °F - 51.1 °F 63% 29.84 in 10.0 mi Calm Calm - N/A   Clear
5:53 AM 63.0 °F - 51.1 °F 65% 29.84 in 10.0 mi South 4.6 mph - N/A   Clear
6:53 AM 71.1 °F - 53.1 °F 53% 29.83 in 10.0 mi South 3.5 mph - N/A   Clear
7:53 AM 75.0 °F - 53.1 °F 46% 29.84 in 10.0 mi Calm Calm - N/A   Clear
8:53 AM 79.0 °F - 52.0 °F 39% 29.84 in 10.0 mi Calm Calm - N/A   Clear
9:53 AM 84.9 °F - 51.1 °F 31% 29.83 in 10.0 mi WNW 5.8 mph - N/A   Clear
10:53 AM 87.1 °F - 48.9 °F 27% 29.82 in 10.0 mi Variable 4.6 mph - N/A   Partly Cloudy
11:53 AM 91.0 °F - 46.9 °F 22% 29.79 in 10.0 mi NNE 4.6 mph - N/A Thunderstorm Thunderstorm
12:53 PM 80.1 °F 79.9 °F 53.1 °F 39% 29.82 in 10.0 mi WSW 18.4 mph 36.8 mph 0.00 in Rain , Thunderstorm Thunderstorms and Rain
1:15 PM 78.8 °F - 55.4 °F 44% 30.07 in 10.0 mi WNW 12.7 mph 25.3 mph 0.00 in Rain , Thunderstorm Thunderstorms and Rain
1:53 PM 73.9 °F - 57.9 °F 57% 29.83 in 10.0 mi SSW 15.0 mph - 0.00 in Rain , Thunderstorm Light Thunderstorms and Rain
2:53 PM 71.1 °F - 61.0 °F 70% 29.83 in 9.0 mi SSW 11.5 mph - 0.00 in Rain , Thunderstorm Thunderstorms and Rain
3:53 PM 73.0 °F - 57.9 °F 59% 29.84 in 10.0 mi SW 10.4 mph - 0.00 in Thunderstorm Thunderstorm
4:27 PM 73.4 °F - 59.0 °F 61% 30.07 in 10.0 mi South 6.9 mph - 0.00 in Rain Light Rain
4:53 PM 69.1 °F - 59.0 °F 70% 29.86 in 10.0 mi SSW 11.5 mph - 0.01 in Rain Light Rain
5:53 PM 68.0 °F - 59.0 °F 73% 29.86 in 10.0 mi West 9.2 mph - 0.04 in Rain Light Rain
6:53 PM 66.0 °F - 61.0 °F 84% 29.86 in 10.0 mi NW 3.5 mph - 0.02 in Rain Light Rain
7:53 PM 66.0 °F - 61.0 °F 84% 29.83 in 10.0 mi Calm Calm - 0.01 in   Mostly Cloudy
8:53 PM 66.0 °F - 61.0 °F 84% 29.83 in 10.0 mi SW 8.1 mph - N/A   Mostly Cloudy
9:53 PM 64.9 °F - 60.1 °F 84% 29.83 in 10.0 mi South 6.9 mph - N/A   Clear
10:53 PM 66.0 °F - 57.9 °F 75% 29.83 in 10.0 mi SSW 9.2 mph - N/A   Partly Cloudy
11:53 PM 64.0 °F - 57.9 °F 80% 29.82 in 10.0 mi South 5.8 mph - N/A   Partly Cloudy